Location: Bannatyne
(13.0833°N, 59.5333°W)
Time: 10:10:35
(UTC+00:00)

Hubble Space Telescope - Visible Passes

Search period start: 10 December 2019 00:00
Search period end: 20 December 2019 00:00
Orbit: 536 x 540 km, 28.5° (Epoch: 09 December)

Date Brightness Start Highest point End Pass type
(mag) Time Alt. Az. Time Alt. Az. Time Alt. Az.
10 Dec 1.3 09:00:39 11° SW 09:04:29 57° SSE 09:08:33 10° ENE visible
11 Dec 0.8 08:51:51 29° WSW 08:53:53 81° SSE 08:58:02 10° ENE visible
12 Dec 0.6 08:42:51 65° WNW 08:43:18 73° NNW 08:47:26 10° ENE visible
13 Dec 1.5 08:33:41 42° NNE 08:33:41 42° NNE 08:36:46 10° NE visible
14 Dec 2.6 08:24:20 22° NNE 08:24:20 22° NNE 08:26:04 10° NE visible
15 Dec 3.4 08:14:50 13° NE 08:14:50 13° NE 08:15:18 10° NE visible
16 Dec 3.0 09:42:04 10° NNW 09:42:58 11° N 09:43:54 10° N visible
